Weather History for Springfield, MO

Change the Weather History Date:

Sunday, July 28, 2013

  Actual Average Record
Temperature  
Mean Temperature 67 °F 79 °F  
Max Temperature 72 °F 90 °F 102 °F (1986)
Min Temperature 61 °F 68 °F 53 °F (1994)
Degree Days  
Heating Degree Days 0 0  
Month to date heating degree days 0 0  
Since 1 June heating degree days 14 9  
Since 1 July heating degree days 0 0  
Cooling Degree Days 2 14  
Month to date cooling degree days 339 369  
Year to date cooling degree days 750 747  
Since 1 June cooling degree days 623 632  
Growing Degree Days 16 (Base 50)    
Moisture  
Dew Point 60 °F    
Average Humidity 80    
Maximum Humidity 93    
Minimum Humidity 66    
Precipitation  
Precipitation T in 0.09 in 2.02 in (1895)
Month to date precipitation 3.68 3.38  
Year to date precipitation 29.66 26.26  
Snow  
Snow 0.00 in - - ()
Month to date snowfall 0.0  
Since 1 June snowfall 0.0  
Since 1 July snowfall 0.0  
Snow Depth 0.00 in    
Sea Level Pressure  
Sea Level Pressure 30.03 in    
Wind  
Wind Speed 4 mph (SSW)    
Max Wind Speed 12 mph    
Max Gust Speed 13 mph    
Visibility 10 miles    
Events Rain    
T = Trace of Precipitation, MM = Missing Value Source: NWS Daily Summary

Daily Weather History Graph

Daily Weather History Graph

Search for Another Location

Airport:

Trip Planner

Search our weather history database for the weather conditions in past years. The results will help you decide how hot, cold, wet, or windy it might be!

Date:

Astronomy

Jul. 28, 2013 Rise Set
Actual Time 6:15 AM CDT 8:24 PM CDT
Civil Twilight 5:46 AM CDT 8:53 PM CDT
Nautical Twilight 5:10 AM CDT 9:29 PM CDT
Astronomical Twilight 4:31 AM CDT 10:07 PM CDT
Moon 11:57 PM CDT (7/28) 12:47 PM CDT (7/28)
Length of Visible Light 15h 07m
Length of Day
14h 09m
Waning Gibbous, 60% of the Moon is Illuminated
Jul 28
Waning Gibbous
Jul 29
Last Quarter
Aug 6
New
Aug 14
First Quarter
Aug 20
Full

Hourly Weather History & Observations

Time (CDT) Temp. Dew Point Humidity Pressure Visibility Wind Dir Wind Speed Gust Speed Precip Events Conditions
12:52 AM 64.0 °F 57.9 °F 80% 30.00 in 10.0 mi Calm Calm - N/A   Clear
1:52 AM 61.0 °F 57.9 °F 90% 30.01 in 10.0 mi Calm Calm - N/A   Mostly Cloudy
2:52 AM 63.0 °F 59.0 °F 87% 30.00 in 10.0 mi Calm Calm - N/A   Overcast
3:52 AM 64.9 °F 59.0 °F 81% 30.00 in 10.0 mi NW 3.5 mph - N/A   Overcast
4:52 AM 64.9 °F 57.9 °F 78% 30.00 in 10.0 mi Calm Calm - N/A   Overcast
5:52 AM 64.0 °F 60.1 °F 87% 30.02 in 10.0 mi NW 3.5 mph - 0.00 in   Overcast
6:52 AM 64.0 °F 60.1 °F 87% 30.02 in 10.0 mi Calm Calm - 0.00 in   Overcast
7:52 AM 64.9 °F 60.1 °F 84% 30.03 in 10.0 mi Calm Calm - N/A   Overcast
8:52 AM 64.9 °F 60.1 °F 84% 30.03 in 10.0 mi Variable 3.5 mph - N/A   Clear
9:52 AM 66.9 °F 60.1 °F 79% 30.03 in 10.0 mi SE 4.6 mph - N/A   Clear
10:52 AM 69.1 °F 60.1 °F 73% 30.03 in 10.0 mi South 8.1 mph - N/A   Clear
11:52 AM 70.0 °F 59.0 °F 68% 30.04 in 10.0 mi South 10.4 mph - N/A   Scattered Clouds
12:52 PM 70.0 °F 60.1 °F 71% 30.04 in 10.0 mi South 5.8 mph - 0.00 in   Clear
1:52 PM 72.0 °F 59.0 °F 64% 30.03 in 10.0 mi WSW 3.5 mph - N/A   Partly Cloudy
2:52 PM 71.1 °F 59.0 °F 66% 30.03 in 10.0 mi SW 4.6 mph - N/A   Partly Cloudy
3:52 PM 72.0 °F 60.1 °F 66% 30.05 in 10.0 mi WSW 5.8 mph - N/A   Clear
4:52 PM 72.0 °F 60.1 °F 66% 30.05 in 10.0 mi West 6.9 mph - N/A   Clear
5:52 PM 71.1 °F 61.0 °F 70% 30.05 in 10.0 mi West 4.6 mph - 0.00 in   Overcast
6:52 PM 70.0 °F 62.1 °F 76% 30.02 in 10.0 mi Calm Calm - 0.00 in Rain Light Rain
7:52 PM 70.0 °F 63.0 °F 78% 30.04 in 10.0 mi Calm Calm - 0.00 in   Mostly Cloudy
8:52 PM 68.0 °F 64.0 °F 87% 30.03 in 10.0 mi SSW 4.6 mph - N/A   Overcast
9:52 PM 68.0 °F 63.0 °F 84% 30.04 in 10.0 mi South 4.6 mph - N/A   Mostly Cloudy
10:52 PM 66.9 °F 64.0 °F 90% 30.06 in 10.0 mi South 4.6 mph - N/A   Mostly Cloudy
11:52 PM 66.9 °F 63.0 °F 87% 30.06 in 10.0 mi South 4.6 mph - N/A   Overcast